162  
ASUS42 KMHX 240822  
RWRMHX  
WEATHER ROUNDUP FOR EASTERN NORTH CAROLINA  
NATIONAL WEATHER SERVICE NEWPORT/MOREHEAD CITY NC  
400 AM EDT FRI OCT 24 2014  
 
NOTE: "FAIR" INDICATES FEW OR NO CLOUDS BELOW 12,000 FEET  
WITH NO SIGNIFICANT WEATHER AND/OR S TO VISIBILITY
 
 
NCZ015>017-031-032-045>047-102-103-240900-  
NORTH COAST  
 
CITY SKY/WX TMP DP RH WIND PRES REMARKS
 
EDENTON PTCLDY 53 46 76 NW7 29.95S  
ELIZABETH CITY CLEAR 51 44 77 W9 29.93F  
KITTY HAWK SUNNY 56 47 70 NW8 29.90F  
MANTEO CLEAR 57 47 70 NW9 29.92F  
 

 
 
NCZ045>047-081-094-103-104-240900-  
CENTRAL COAST  
 
CITY SKY/WX TMP DP RH WIND PRES REMARKS
 
FRISCO CLEAR 59 49 69 NW9G21 29.92F  
SWANQUARTER NOT AVBL  
 

 
 
NCZ095-097-098-100-101-240900-  
SOUTHERN COAST  
 
CITY SKY/WX TMP DP RH WIND PRES REMARKS
 
BEAUFORT CLEAR 54 50 86 NW9 29.96S  
CEDAR ISLAND NOT AVBL  
JACKSONVILLE CLEAR 47 45 93 W3 29.97F  
PINEY ISLAND MOSUNNY 58 49 72 NW8 29.95F  
WILMINGTON CLEAR 50 46 86 W3 29.99S  
 

 
 
NCZ011>013-027>030-043-044-078>080-089-090>093-098-240900-  
COASTAL PLAIN  
 
CITY SKY/WX TMP DP RH WIND PRES REMARKS
 
AHOSKIE PTCLDY 46 43 91 CALM 29.98R  
CLINTON CLEAR 46 46 99 SW5 30.01S  
ELIZABETHTOWN CLEAR 51 44 76 NW3 30.00F  
GOLDSBORO CLEAR 48 47 97 W5 29.97F  
GREENVILLE MOCLDY 48 46 93 CALM 30.00R  
HAVELOCK CLEAR 49 45 86 W3 29.98S  
KENANSVILLE CLEAR 46 43 90 CALM 29.99F  
KINSTON PTCLDY 44 43 96 CALM 29.99S  
NEW BERN CLEAR 50 45 83 NW3 29.98F  
RICHLANDS CLEAR 43 39 87 CALM 29.98S  
ROCKY MOUNT MOCLDY 50 43 77 NW3 29.99R  
WASHINGTON PTCLDY 47 44 90 W3 29.98R  
WHITEVILLE CLEAR 48 45 89 CALM 30.00S  
 

 
 
AMZ130-135-150-152-154-156-158-170-250-252-270-ANZ085-086-088-633-658-670-240900-  
MARINE OBSERVATIONS  
 
STATION/POSITION TIME TEMP WIND PRES WAVE SWELL
 
AIR SEA DIR/SP/G HT/PER HT/PER  
(UTC) (F) (DEG/KT/KT) (MB) (FT/S) (FT/S)  
CHESAPEAKE LIGHT 0800 60 320/ 24/ 26 1012.6  
64 E VA BEACH 0800 63 66 330/ 19/ 23 1010.7 6/ 6  
DUCK 0800 56 66 310/ 12/ 16 1012.1  
2 E DUCK 0800 N/A 4/ 8  
10 NE DUCK 0800 68 N/A 5/ 8  
OREGON INLET 0800 58 64 310/ 13/ 16 1012.7  
13E OREGON INLT 0800 70 N/A 6/ 8 2/11  
HATTERAS CG 0800 61 64 310/ 18/ 19 1013.5  
DIAMOND BUOY 0800 64 320/ 21/ 27 1012.8 4/ 5 2/ 8  
17 S OCRACOKE NOT AVBL  
CAPE LOOKOUT 0800 58 330/ 12/ 13 1014.1  
BEAUFORT LAB 0800 55 66 330/ 4/ 5 1013.8  
30 SE NEW RIVER 0800 65 75 10/ 10/ 14 1014.1 4/11 3/11  
5 SE WRIGHTSVLE 0800 57 72 350/ 12/ 14 N/A  
225 S CAPE HAT 0712 72 78 310/ 12/ 16 1014.0 6/10 5/10  
41 SE CHARLESTON 0800 68 78 360/ 10/ 14 1015.2 3/11 2/11  
 

 
 
CLICK HERE TO GO TO PREVIOUS BULLETINS.

The Nexlab NC Page Main Text Page